{"data":{"norad_id":35684,"epoch":"2026-05-25T04:41:04.922304Z","epoch_age_seconds":54808,"freshness":"FRESH","line1":"1 35684U 09041D   26145.19519586  .00000664  00000+0  85733-4 0  9997","line2":"2 35684  98.1414 220.0578 0044079  37.7522 322.6770 14.83841332907953","mean_motion":14.83841332,"eccentricity":0.0044079,"inclination_deg":98.1414,"raan_deg":220.0578,"arg_perigee_deg":37.7522,"mean_anomaly_deg":322.677,"bstar":8.5733e-5,"rev_number":90795,"period_min":97.045416443488,"perigee_km":586.39022532482,"apogee_km":648.05993836596,"semimajor_km":6995.3620818454,"source":"CELESTRAK","updated_at":"2026-05-25T13:38:24.893151Z"}}